Presure
157 162 132 150 139 146 144 155 154 152 153 150 133 131 130 118 121 134 130 143 135 121 139 136 130 133 134 116 137 151 113 129 144 122 141 157 148 161 146 154 150 117 154 133 139
162 159 154 158 154 152 156 143 151 142 154 151 142 154 142 139 136 108 127 135 141 148 146 127 141 145 111 141 88 135 155 151 145 151 157 153 160 135 142 140 156 154 154 165 163
161 166 159 156 159 161 153 131 150 136 141 137 142 150 142 146 149 150 136 139 153 138 138 150 142 152 144 161 150 102 131 127 132 152 142 147 150 151 143 123 155 157 158 156 151
162 159 168 164 162 160 160 155 151 150 159 154 148 147 154 149 149 156 151 152 156 156 153 147 145 150 146 136 146 154 101 150 157 161 155 101 151 142 153 149 160 142 161 153 160
164 144 132 173 158 161 159 160 161 161 160 157 153 159 151 143 147 140 146 142 145 145 147 147 148 137 146 158 159 151 147 153 126 104 151 133 148 160 154 159 155 149 161 160 165
154 161 166 160 148 167 170 154 156 150 157 158 158 163 157 151 153 157 157 143 157 146 151 152 154 166 161 162 159 151 148 150 152 149 121 151 154 151 159 154 153 159 160 167 152
144 177 170 158 158 160 163 162 163 172 175 173 154 150 166 167 163 161 159 161 164 165 161 144 140 159 152 150 161 140 152 149 152 155 149 152 157 153 151 157 154 146 161 162 167
183 133 164 173 171 155 139 171 163 155 153 162 168 169 153 159 155 154 167 159 159 154 153 159 161 156 151 151 152 160 150 156 152 156 158 159 150 155 158 157 157 165 160 168 156
222 202 188 193 157 176 172 169 166 159 161 162 161 156 157 164 164 159 162 165 168 163 158 161 159 162 159 163 158 164 153 156 161 160 162 161 165 160 166 166 173 178 183 174 181
189 186 205 225 202 188 178 187 179 174 173 134 155 167 162 161 168 162 161 159 160 167 155 165 161 159 161 160 159 158 164 150 155 168 159 158 172 179 172 181 179 192 181 185 194
202 196 199 173 184 206 207 232 181 179 183 178 180 166 172 177 162 170 171 166 171 170 165 166 166 166 164 166 169 157 172 171 164 160 164 179 168 174 177 192 182 178 183 177 166
194 197 202 206 192 208 196 213 201 209 225 212 185 179 182 182 178 169 172 185 170 179 180 173 178 170 180 173 164 188 172 179 190 178 157 180 171 165 177 180 175 173 166 166 170
185 183 195 198 195 199 210 217 200 200 217 203 200 210 205 196 187 133 178 178 181 182 183 181 183 184 186 185 180 183 175 177 176 179 178 177 178 172 174 170 167 166 165 187 211
183 190 191 184 194 193 187 197 210 214 190 189 204 213 194 203 213 208 211 212 210 200 191 190 194 189 184 182 178 177 177 178 179 177 172 167 180 174 179 168 171 169 200 207 191
188 188 197 199 191 195 191 208 204 205 199 205 209 207 156 191 189 197 215 212 205 205 208 205 208 206 207 197 196 197 212 221 212 212 211 206 216 210 211 203 198 205 195 196 197
197 194 186 185 186 191 194 192 202 207 200 208 197 204 213 217 218 224 201 192 194 196 201 203 203 208 209 209 208 208 205 204 195 195 212 210 204 193 190 191 192 194 195 190 184
194 203 208 194 183 189 185 187 197 196 202 199 205 199 198 202 212 214 201 208 225 234 197 194 197 198 194 194 191 193 195 192 192 190 189 198 205 198 194 191 191 191 187 187 183
203 220 195 203 182 207 200 179 187 192 194 200 195 200 201 198 203 201 211 225 228 217 266 245 230 213 205 212 221 186 183 185 189 189 185 186 185 186 198 194 188 188 187 189 187
187 204 199 201 201 194 210 204 189 222 186 194 196 192 202 201 206 203 207 211 216 223 216 223 242 231 220 210 199 218 221 216 179 175 180 177 192 192 185 200 191 188 186 190 191
191 200 203 193 196 192 184 208 190 213 182 201 201 209 201 196 205 209 206 196 206 232 212 216 237 238 228 212 208 193 198 219 210 210 211 189 203 198 192 194 193 192 197 196 196
189 203 198 204 210 196 203 200 198 185 207 212 211 190 190 206 198 196 194 207 202 197 237 256 210 205 236 227 217 206 195 190 217 212 208 210 208 206 194 192 182 184 185 193 179
197 191 191 203 212 212 197 197 201 186 204 178 231 227 208 189 198 205 213 195 191 199 208 210 248 260 243 229 224 215 198 197 216 209 207 204 203 208 200 198 195 195 189 189 192
210 208 216 211 206 188 217 187 200 219 197 243 239 223 216 186 193 205 194 214 205 202 219 190 191 257 249 236 219 214 217 202 188 206 204 202 201 199 197 200 202 198 195 196 192
217 216 214 196 198 210 208 212 201 211 199 245 238 227 221 226 237 206 211 191 204 213 210 206 230 189 198 231 223 221 221 210 196 186 204 198 196 198 197 199 197 198 199 199 198
210 209 213 211 222 211 213 221 235 259 254 247 244 224 223 221 240 225 218 211 202 214 193 217 199 251 185 188 204 226 219 213 202 200 199 179 200 197 196 193 193 193 196 198 198
212 219 214 213 206 196 225 250 255 252 246 251 245 235 241 242 240 234 220 209 214 210 197 190 208 188 189 177 207 177 224 221 206 193 190 195 193 196 197 196 197 190 195 193 193
223 253 233 218 243 227 250 230 253 247 256 257 259 255 252 243 241 235 225 214 214 217 208 207 196 187 159 183 210 202 222 214 209 204 198 192 193 196 197 194 190 190 189 190 188
Wind_Speed
76 77 51 72 58 62 60 69 68 65 64 62 54 52 50 47 45 45 44 50 46 41 49 46 43 38 51 27 49 56 36 38 51 33 38 53 53 53 36 58 45 38 54 39 41
79 79 76 77 74 72 73 63 66 60 67 64 58 62 59 55 52 41 47 49 51 54 54 40 49 52 36 58 24 42 56 59 52 61 61 56 53 29 38 47 59 55 51 62 60
81 83 79 80 80 77 74 55 70 55 59 54 59 66 60 64 64 63 50 51 57 47 49 57 49 55 54 52 60 32 42 43 44 62 46 43 54 56 55 37 60 60 57 53 48
83 82 85 85 82 80 80 77 73 73 74 73 70 67 70 67 68 69 65 61 62 62 60 55 55 58 55 45 52 54 35 62 59 57 62 31 60 50 61 55 66 37 63 51 60
83 72 61 86 80 82 80 79 79 79 79 78 74 75 72 65 68 55 60 55 59 54 59 56 61 47 56 60 54 59 56 54 48 35 61 49 57 64 64 65 62 49 66 63 69
79 84 86 82 73 84 85 79 78 72 79 78 77 80 78 74 74 77 75 62 72 61 58 68 68 62 62 60 59 61 59 60 60 56 45 62 66 58 66 66 59 67 65 71 39
74 91 92 84 83 83 85 83 84 85 87 86 79 73 80 77 81 79 77 75 74 71 71 56 47 68 63 60 63 49 64 62 66 66 64 66 67 63 63 69 67 52 70 64 69
91 68 87 93 94 82 67 91 88 81 80 84 86 85 75 83 78 76 82 80 79 73 72 73 74 69 64 63 59 69 60 68 63 68 68 70 57 65 68 67 69 73 65 69 43
67 87 94 97 84 97 96 91 88 84 86 89 87 82 81 88 82 81 82 81 83 82 76 78 78 77 75 75 68 73 63 66 71 70 70 74 74 70 73 71 75 75 71 69 63
79 83 76 70 93 101 96 98 97 96 95 64 79 93 90 89 90 87 84 83 82 85 70 82 79 76 80 70 72 69 76 56 62 74 68 67 76 76 73 68 66 58 62 59 55
71 75 76 87 86 80 87 65 96 95 97 96 96 91 95 94 89 94 92 89 93 91 85 85 84 86 80 82 83 65 80 80 76 70 72 80 75 74 70 58 52 57 57 58 48
71 71 70 71 83 71 81 72 84 82 72 91 98 96 96 95 96 94 94 95 91 95 94 87 91 85 87 87 77 76 82 77 71 85 57 74 71 64 64 57 58 59 55 53 52
73 74 72 71 75 73 65 61 79 81 73 85 88 89 90 96 95 60 94 95 96 92 92 91 90 87 84 82 80 76 76 75 73 72 74 73 71 68 67 62 59 60 58 70 54
75 72 73 77 74 75 79 73 64 66 85 89 79 76 87 87 86 89 89 91 93 98 97 93 94 88 86 84 78 75 76 74 74 72 71 68 76 69 68 62 63 64 62 51 56
76 75 68 67 73 70 74 62 66 65 70 71 71 78 80 87 91 86 80 81 85 86 82 82 86 88 82 85 84 82 71 63 62 60 58 60 51 55 51 52 50 52 56 51 49
71 77 82 81 81 76 72 73 67 64 67 64 73 72 70 69 71 69 83 84 84 82 79 79 80 76 76 74 70 67 65 63 60 58 50 56 49 53 53 51 49 49 51 52 52
75 71 72 79 86 82 84 83 75 72 70 70 67 73 76 75 71 72 81 72 67 70 80 81 78 77 76 74 69 66 66 65 61 58 55 51 45 50 53 51 49 47 49 50 51
75 71 81 73 88 71 75 85 81 78 80 74 77 74 74 79 77 76 71 63 62 66 64 65 65 71 75 69 63 69 69 65 61 61 58 54 52 53 50 50 49 49 49 48 48
85 73 79 79 79 85 68 75 86 71 86 84 81 82 76 76 74 73 68 65 63 63 63 63 64 66 66 67 67 60 57 56 63 62 60 57 52 52 53 48 49 51 51 49 48
84 78 77 84 85 89 92 69 89 70 88 83 84 77 82 82 74 73 71 72 68 63 66 62 59 64 63 63 64 69 61 51 53 50 51 56 49 48 51 48 51 52 50 48 48
92 79 79 78 79 88 75 79 84 97 78 80 79 88 78 82 81 80 73 71 76 70 60 55 59 61 61 60 63 62 64 63 50 49 50 50 48 47 48 51 54 51 49 48 48
89 88 89 84 84 79 83 83 80 99 84 85 79 78 85 90 81 80 74 77 75 71 60 57 55 57 58 59 59 60 65 60 48 50 49 49 51 42 46 49 48 46 49 49 47
94 90 92 89 86 93 79 93 86 83 94 81 79 80 80 78 90 81 76 76 77 75 69 64 54 56 56 56 60 63 59 57 60 50 51 46 52 40 49 48 43 46 47 46 46
98 93 89 94 90 82 91 85 92 94 96 82 80 80 82 78 74 81 80 80 74 73 72 62 60 57 54 60 63 59 56 54 58 59 48 51 50 45 47 46 45 45 46 45 43
94 92 94 89 93 94 89 88 93 83 82 82 82 83 82 80 75 76 81 80 82 74 68 70 57 59 63 64 60 60 59 55 54 54 49 58 48 47 46 45 46 45 46 44 43
94 100 95 92 91 92 97 89 83 81 82 83 82 84 84 81 78 78 79 84 79 80 75 65 63 58 61 67 63 60 59 56 54 61 56 52 54 44 49 44 45 46 44 44 44
105 97 100 93 98 92 86 83 79 79 80 81 80 80 79 79 81 80 80 85 82 79 82 78 65 63 63 66 65 50 58 61 59 55 53 54 56 47 48 46 46 46 46 46 46
Wind_Direction
233 230 244 242 251 248 250 245 246 251 252 256 259 257 259 257 261 268 269 277 271 273 283 288 292 292 301 285 302 307 291 315 314 322 321 326 328 331 340 335 342 338 343 346 339
230 233 238 238 239 243 243 255 251 258 252 256 259 256 259 268 268 257 263 266 277 276 278 277 287 287 288 297 293 293 302 308 315 315 318 324 322 318 337 329 330 336 339 332 335
234 231 235 239 239 240 246 243 248 253 257 257 261 259 265 265 266 267 265 272 271 275 280 279 280 282 289 281 292 285 298 303 309 314 319 312 328 325 323 328 326 327 328 338 340
234 238 234 236 237 240 242 246 250 253 251 253 260 262 258 261 264 264 269 269 268 270 274 278 285 282 286 288 291 288 286 303 302 305 312 301 318 321 317 324 315 331 322 334 330
236 237 242 238 243 241 245 246 245 248 250 254 255 255 260 266 266 266 266 270 273 271 277 273 280 281 286 281 283 287 293 292 298 296 302 307 312 305 311 310 315 323 320 323 324
239 241 239 241 241 241 242 250 248 252 252 252 253 253 257 261 262 262 264 266 267 270 266 275 276 270 275 276 280 290 293 295 297 299 302 304 305 310 307 312 316 316 318 316 333
245 238 238 243 246 245 245 245 247 247 247 247 254 257 255 255 257 261 264 265 264 265 268 272 274 276 281 284 277 287 288 289 292 293 298 300 298 304 308 308 310 316 312 316 316
241 246 242 241 243 245 247 247 247 250 252 251 251 252 257 256 259 261 259 263 266 270 271 271 272 276 279 281 278 278 288 286 288 290 290 291 298 297 299 301 303 302 308 308 318
249 246 244 245 247 243 243 246 248 248 250 251 254 255 255 255 256 258 260 262 262 264 269 267 270 272 275 273 277 277 283 285 286 286 288 290 292 295 296 300 298 299 299 303 306
246 246 249 249 248 246 247 249 247 248 250 253 252 252 253 256 256 256 258 260 263 263 267 265 267 270 272 274 279 279 278 282 284 284 287 290 290 290 292 295 297 299 299 300 303
248 248 250 246 248 250 251 252 250 249 249 250 251 252 253 253 257 259 258 260 261 262 264 266 266 267 271 274 273 278 275 278 280 284 286 284 290 291 292 295 294 296 300 302 309
253 252 251 251 250 251 251 252 252 251 252 255 252 252 253 253 254 257 258 262 263 263 264 263 263 266 267 268 273 277 273 276 276 278 287 282 284 289 289 291 292 295 300 302 307
250 249 253 252 251 254 253 257 253 253 254 253 255 256 255 256 256 255 257 259 261 262 263 265 267 267 267 267 268 270 270 272 275 277 277 281 283 285 286 289 293 296 299 298 296
247 250 251 250 251 250 250 252 257 257 253 254 256 256 257 257 256 256 258 261 263 263 264 266 268 268 270 270 271 269 269 271 273 275 278 283 281 284 282 289 293 293 290 290 297
245 246 246 250 252 253 251 259 254 255 255 259 259 258 255 256 257 258 257 258 260 262 264 264 266 267 270 271 274 276 275 275 276 277 278 278 275 283 281 283 285 283 287 291 293
248 247 248 248 249 249 250 251 254 255 253 257 257 260 260 259 259 257 257 259 261 263 263 263 265 266 267 268 269 271 275 276 276 277 278 274 282 280 281 281 282 283 288 294 299
245 248 248 245 249 248 251 250 251 251 251 251 254 255 258 258 258 259 258 257 255 258 262 263 265 266 266 267 269 271 271 273 275 276 276 277 276 274 278 281 283 284 287 290 295
249 255 245 246 251 251 253 254 254 252 250 248 249 251 254 257 258 258 261 259 256 257 253 253 257 260 264 264 263 266 267 269 272 272 273 276 276 276 274 278 283 284 284 287 291
244 250 246 247 247 247 252 249 251 260 255 253 250 251 252 255 257 258 260 261 261 255 253 253 251 254 257 262 264 262 261 263 267 269 272 272 270 273 277 274 280 281 284 288 290
244 250 250 244 247 247 252 252 252 258 255 255 252 251 252 254 254 256 255 258 258 258 255 255 251 251 254 258 260 261 264 259 261 260 257 267 261 264 272 273 272 276 281 285 287
245 253 249 254 258 247 250 253 250 253 255 258 253 255 257 251 254 255 255 255 258 257 259 254 250 254 248 252 254 259 261 263 257 256 258 256 258 257 265 267 275 278 282 280 285
249 246 247 254 258 258 247 248 254 254 253 258 256 253 249 258 256 253 251 254 255 258 257 254 251 244 245 248 252 255 256 258 255 255 256 257 259 261 261 263 267 271 273 277 280
257 257 261 258 257 250 260 250 250 263 251 259 254 251 250 255 254 254 256 250 253 257 256 248 250 243 242 244 246 247 249 256 259 254 253 257 259 259 263 265 267 268 270 272 274
259 258 258 248 250 257 258 257 259 262 255 255 251 247 247 248 246 251 248 255 252 251 254 251 252 248 250 239 244 247 248 247 252 257 253 254 258 256 259 265 267 269 271 275 278
254 255 259 257 264 256 259 267 270 261 255 253 248 247 247 247 246 240 243 246 252 249 250 252 244 247 246 249 247 242 245 244 247 250 249 260 255 256 258 260 265 268 271 274 277
253 257 257 257 252 252 268 265 263 258 255 252 249 247 248 245 244 237 238 244 245 247 248 244 245 237 241 251 246 252 243 245 241 247 252 252 252 257 257 260 261 265 269 274 277
258 258 258 252 260 261 260 260 258 257 255 252 249 248 244 242 240 236 235 240 242 244 248 247 240 238 247 245 242 248 241 243 242 242 243 247 252 251 256 256 260 263 268 271 276